This demonstration page uses our WeatherBlox Daily Observations layout. Learn more.

36.17497, -115.13722

Hourly Observations for July 6, 2016

Temp ( °F °C ) Dew Point ( °F °C ) Humidity (%) Winds ( mph kmh ) Pressure ( in mb ) Visibility ( mi km ) Precip ( " mm )
12:53 am 00:53 Clear 87 30.6 31 -0.6 13 13 S 12 19 29.62 1003 10 16.09344 0 0
1:53 am 01:53 Clear 86 30 34 1.1 15 15 S 7 11 29.65 1004 10 16.09344 0 0
2:53 am 02:53 Clear 85 29.4 37 2.8 18 18 SSW 13 20 29.65 1004 10 16.09344 0 0
3:53 am 03:53 Clear 83 28.3 36 2.2 19 19 SSW 17 28 29.65 1004 10 16.09344 0 0
4:53 am 04:53 Clear 82 27.8 36 2.2 19 19 SSW 9 15 29.68 1005 10 16.09344 0 0
5:53 am 05:53 Sunny 81 27.2 35 1.7 19 19 Calm 29.68 1005 10 16.09344 0 0
6:53 am 06:53 Sunny 82 27.8 37 2.8 20 20 ENE 5 7 29.71 1006 10 16.09344 0 0
7:53 am 07:53 Sunny 85 29.4 36 2.2 17 17 N 6 9 29.74 1007 10 16.09344 0 0
8:53 am 08:53 Sunny 90 32.2 34 1.1 14 14 S 21 33 29.71 1006 10 16.09344 0 0
9:53 am 09:53 Sunny 93 33.9 33 0.6 12 12 S 17 28 29.71 1006 10 16.09344 0 0
10:53 am 10:53 Sunny 96 35.6 31 -0.6 10 10 S 20 31 29.65 1004 10 16.09344 0 0
11:53 am 11:53 Sunny 99 37.2 26 -3.3 7 7 SSW 23 37 29.62 1003 10 16.09344 0 0
12:53 pm 12:53 Sunny 101 38.3 27 -2.8 7 7 S 24 39 29.62 1003 10 16.09344 0 0
1:53 pm 13:53 Sunny 101 38.3 27 -2.8 7 7 SSW 21 33 29.59 1002 10 16.09344 0 0
2:53 pm 14:53 Sunny 102 38.9 28 -2.2 7 7 SSW 23 37 29.56 1001 10 16.09344 0 0
3:53 pm 15:53 Sunny 102 38.9 27 -2.8 7 7 SSW 20 31 29.53 1000 10 16.09344 0 0
4:53 pm 16:53 Sunny 102 38.9 28 -2.2 7 7 SW 20 31 29.53 1000 10 16.09344 0 0
5:53 pm 17:53 Sunny 102 38.9 27 -2.8 7 7 SW 15 24 29.5 999 10 16.09344 0 0
6:53 pm 18:53 Sunny 100 37.8 25 -3.9 7 7 SW 20 31 29.53 1000 10 16.09344 0 0
7:53 pm 19:53 Sunny 98 36.7 25 -3.9 7 7 SSW 15 24 29.53 1000 10 16.09344 0 0
8:53 pm 20:53 Clear 95 35 26 -3.3 8 8 SSW 9 15 29.56 1001 10 16.09344 0 0
9:53 pm 21:53 Clear 93 33.9 28 -2.2 10 10 SSW 9 15 29.59 1002 10 16.09344 0 0
10:53 pm 22:53 Clear 91 32.8 29 -1.7 11 11 SSW 10 17 29.62 1003 10 16.09344 0 0
11:53 pm 23:53 Clear 90 32.2 32 0 13 13 SW 14 22 29.62 1003 10 16.09344 0 0

Powered by AerisWeather